User: anonymous   Login
Location: Unspecified
(0.0000°N, 0.0000°E)
Time: 18:07:00
(UTC+00:00)
Language:

GONETS M 13 (M23) - Orbit

View from above orbital plane
View from above orbital plane
View from above satellite
View from above satellite

Ground track
Ground track

The orbit data is extracted from the following two-line orbital elements,

1 40554U 15020C   19016.78285273  .00000052  00000-0  30524-3 0  9999
2 40554  82.4859 278.3369 0013492 113.5552 246.6937 12.42874826172321
Epoch (UTC): 16 January 2019 18:47:18
Eccentricity: 0.0013492
inclination: 82.4859°
perigee height: 1484 km
apogee height: 1505 km
right ascension of ascending node: 278.3369°
argument of perigee: 113.5552°
revolutions per day: 12.42874826
mean anomaly at epoch: 246.6937°
orbit number at epoch: 17232

The dashed part of the orbit path shows where the satellite is in the earth's shadow,  

DLR